Wetterdaten: Mittwoch, 19.03.2014
Datum Zeit Temperatur Luftfeuchte Luftdruck Regen Wind Richtung Richtung Taupunkt Windchill Windben
19.03.2014 00:00 11,7 C 49 % 1017,8 hPa 0,0 l/m 0,0 km/h (0 Bft) SW 225 1,3 C 16,1 C 0,0 km/h (0 Bft)
19.03.2014 00:05 11,3 C 50 % 1017,9 hPa 0,0 l/m 0,0 km/h (0 Bft) SW 225 1,3 C 16,1 C 0,0 km/h (0 Bft)
19.03.2014 00:10 11,2 C 52 % 1017,9 hPa 0,0 l/m 0,0 km/h (0 Bft) SW 225 1,7 C 16,1 C 0,0 km/h (0 Bft)
19.03.2014 00:15 10,8 C 53 % 1017,9 hPa 0,0 l/m 0,0 km/h (0 Bft) SW 225 1,6 C 16,1 C 0,0 km/h (0 Bft)
19.03.2014 00:20 11,0 C 53 % 1017,9 hPa 0,0 l/m 0,0 km/h (0 Bft) SW 225 1,8 C 16,1 C 0,0 km/h (0 Bft)
19.03.2014 00:25 10,9 C 54 % 1018,2 hPa 0,0 l/m 0,0 km/h (0 Bft) SW 225 2,0 C 16,1 C 0,0 km/h (0 Bft)
19.03.2014 00:30 11,1 C 54 % 1018,2 hPa 0,0 l/m 0,0 km/h (0 Bft) SW 225 2,2 C 16,1 C 0,0 km/h (0 Bft)
19.03.2014 00:35 11,2 C 55 % 1018,2 hPa 0,0 l/m 0,0 km/h (0 Bft) SW 225 2,5 C 16,1 C 0,0 km/h (0 Bft)
19.03.2014 00:40 11,3 C 56 % 1018,2 hPa 0,0 l/m 0,0 km/h (0 Bft) SW 225 2,8 C 16,1 C 0,0 km/h (0 Bft)
19.03.2014 00:45 11,3 C 56 % 1018,2 hPa 0,0 l/m 0,0 km/h (0 Bft) SW 225 2,8 C 16,1 C 0,0 km/h (0 Bft)
19.03.2014 00:50 11,3 C 56 % 1018,2 hPa 0,0 l/m 0,0 km/h (0 Bft) SW 225 2,8 C 16,1 C 0,0 km/h (0 Bft)
19.03.2014 00:55 11,3 C 57 % 1018,2 hPa 0,0 l/m 0,0 km/h (0 Bft) SW 225 3,1 C 16,1 C 0,0 km/h (0 Bft)
19.03.2014 01:00 11,4 C 57 % 1018,2 hPa 0,0 l/m 0,0 km/h (0 Bft) SW 225 3,2 C 16,1 C 0,0 km/h (0 Bft)
19.03.2014 01:05 11,4 C 58 % 1018,4 hPa 0,0 l/m 0,0 km/h (0 Bft) SW 225 3,4 C 16,1 C 0,0 km/h (0 Bft)
19.03.2014 01:10 11,3 C 58 % 1018,4 hPa 0,0 l/m 0,0 km/h (0 Bft) SW 225 3,3 C 16,1 C 0,0 km/h (0 Bft)
19.03.2014 01:15 11,4 C 59 % 1018,4 hPa 0,0 l/m 0,0 km/h (0 Bft) SW 225 3,7 C 16,1 C 0,0 km/h (0 Bft)
19.03.2014 01:20 11,4 C 59 % 1018,4 hPa 0,0 l/m 0,0 km/h (0 Bft) SW 225 3,7 C 16,1 C 0,0 km/h (0 Bft)
19.03.2014 01:25 11,3 C 59 % 1018,3 hPa 0,0 l/m 0,0 km/h (0 Bft) SW 225 3,6 C 16,1 C 0,0 km/h (0 Bft)
19.03.2014 01:30 11,1 C 59 % 1018,3 hPa 0,0 l/m 0,0 km/h (0 Bft) SW 225 3,4 C 16,1 C 0,0 km/h (0 Bft)
19.03.2014 01:35 11,0 C 61 % 1018,3 hPa 0,0 l/m 0,0 km/h (0 Bft) SW 225 3,8 C 16,1 C 0,0 km/h (0 Bft)
19.03.2014 01:40 11,0 C 62 % 1018,3 hPa 0,0 l/m 0,0 km/h (0 Bft) SW 225 4,0 C 16,1 C 0,0 km/h (0 Bft)
19.03.2014 01:45 10,9 C 62 % 1018,6 hPa 0,0 l/m 0,0 km/h (0 Bft) SW 225 3,9 C 16,1 C 0,0 km/h (0 Bft)
19.03.2014 01:50 10,9 C 63 % 1018,6 hPa 0,0 l/m 0,0 km/h (0 Bft) SW 225 4,1 C 16,1 C 0,0 km/h (0 Bft)
19.03.2014 01:55 10,7 C 63 % 1018,6 hPa 0,0 l/m 0,0 km/h (0 Bft) SW 225 3,9 C 16,1 C 0,0 km/h (0 Bft)
19.03.2014 02:00 10,7 C 63 % 1018,6 hPa 0,0 l/m 0,0 km/h (0 Bft) SW 225 3,9 C 16,1 C 0,0 km/h (0 Bft)
19.03.2014 02:05 10,2 C 60 % 1018,9 hPa 0,0 l/m 0,0 km/h (0 Bft) SW 225 2,8 C 16,1 C 0,0 km/h (0 Bft)
19.03.2014 02:10 10,0 C 60 % 1018,9 hPa 0,0 l/m 0,0 km/h (0 Bft) SW 225 2,6 C 16,1 C 0,0 km/h (0 Bft)
19.03.2014 02:15 9,8 C 61 % 1018,9 hPa 0,0 l/m 0,0 km/h (0 Bft) SW 225 2,6 C 16,1 C 0,0 km/h (0 Bft)
19.03.2014 02:20 9,6 C 62 % 1018,9 hPa 0,0 l/m 0,0 km/h (0 Bft) SW 225 2,7 C 16,1 C 0,0 km/h (0 Bft)
19.03.2014 02:25 9,4 C 62 % 1019,3 hPa 0,0 l/m 0,0 km/h (0 Bft) SW 225 2,5 C 16,1 C 0,0 km/h (0 Bft)
19.03.2014 02:30 9,2 C 61 % 1019,3 hPa 0,0 l/m 0,0 km/h (0 Bft) SW 225 2,1 C 16,1 C 0,0 km/h (0 Bft)
19.03.2014 02:35 8,8 C 62 % 1019,3 hPa 0,0 l/m 0,0 km/h (0 Bft) SW 225 1,9 C 16,1 C 0,0 km/h (0 Bft)
19.03.2014 02:40 8,7 C 63 % 1019,3 hPa 0,0 l/m 0,0 km/h (0 Bft) SW 225 2,1 C 16,1 C 0,0 km/h (0 Bft)
19.03.2014 02:45 8,3 C 64 % 1019,9 hPa 0,0 l/m 0,0 km/h (0 Bft) SW 225 1,9 C 16,1 C 0,0 km/h (0 Bft)
19.03.2014 02:50 8,1 C 65 % 1019,9 hPa 0,0 l/m 0,0 km/h (0 Bft) SW 225 1,9 C 16,1 C 0,0 km/h (0 Bft)
19.03.2014 02:55 7,9 C 67 % 1019,9 hPa 0,0 l/m 0,0 km/h (0 Bft) SW 225 2,2 C 16,1 C 0,0 km/h (0 Bft)
19.03.2014 03:00 7,8 C 67 % 1019,9 hPa 0,0 l/m 0,0 km/h (0 Bft) SW 225 2,1 C 16,1 C 0,0 km/h (0 Bft)
19.03.2014 03:05 7,7 C 67 % 1020,5 hPa 0,0 l/m 0,0 km/h (0 Bft) SW 225 2,0 C 16,1 C 0,0 km/h (0 Bft)
19.03.2014 03:10 7,6 C 66 % 1020,5 hPa 0,0 l/m 0,0 km/h (0 Bft) SW 225 1,7 C 16,1 C 0,0 km/h (0 Bft)
19.03.2014 03:15 7,5 C 65 % 1020,5 hPa 0,0 l/m 0,0 km/h (0 Bft) SW 225 1,4 C 16,1 C 0,0 km/h (0 Bft)
19.03.2014 03:20 7,5 C 64 % 1020,5 hPa 0,0 l/m 0,0 km/h (0 Bft) SW 225 1,1 C 16,1 C 0,0 km/h (0 Bft)
19.03.2014 03:25 7,3 C 63 % 1020,6 hPa 0,0 l/m 0,0 km/h (0 Bft) SW 225 0,7 C 16,1 C 0,0 km/h (0 Bft)
19.03.2014 03:30 7,3 C 64 % 1020,6 hPa 0,0 l/m 0,0 km/h (0 Bft) SW 225 1,0 C 16,1 C 0,0 km/h (0 Bft)
19.03.2014 03:35 7,3 C 64 % 1020,6 hPa 0,0 l/m 0,0 km/h (0 Bft) SW 225 1,0 C 16,1 C 0,0 km/h (0 Bft)
19.03.2014 03:40 7,2 C 64 % 1020,6 hPa 0,0 l/m 0,0 km/h (0 Bft) SW 225 0,9 C 16,1 C 0,0 km/h (0 Bft)
19.03.2014 03:45 7,2 C 64 % 1021,0 hPa 0,0 l/m 0,0 km/h (0 Bft) SW 225 0,9 C 16,1 C 0,0 km/h (0 Bft)
19.03.2014 03:50 7,2 C 65 % 1021,0 hPa 0,0 l/m 0,0 km/h (0 Bft) SW 225 1,1 C 16,1 C 0,0 km/h (0 Bft)
19.03.2014 03:55 7,1 C 65 % 1021,0 hPa 0,0 l/m 0,0 km/h (0 Bft) SW 225 1,0 C 16,1 C 0,0 km/h (0 Bft)
19.03.2014 04:00 7,2 C 66 % 1021,0 hPa 0,0 l/m 0,0 km/h (0 Bft) SW 225 1,3 C 16,1 C 0,0 km/h (0 Bft)
19.03.2014 04:05 7,3 C 65 % 1020,8 hPa 0,0 l/m 0,0 km/h (0 Bft) SW 225 1,2 C 16,1 C 0,0 km/h (0 Bft)
19.03.2014 04:08 7,4 C 64 % 1020,8 hPa 0,0 l/m 0,0 km/h (0 Bft) SW 225 1,0 C 16,1 C 0,0 km/h (0 Bft)
19.03.2014 04:10 7,4 C 64 % 1020,8 hPa 0,0 l/m 0,0 km/h (0 Bft) SW 225 1,0 C 16,1 C 0,0 km/h (0 Bft)
19.03.2014 04:15 7,3 C 63 % 1020,8 hPa 0,0 l/m 0,0 km/h (0 Bft) SW 225 0,7 C 16,1 C 0,0 km/h (0 Bft)
19.03.2014 04:20 7,3 C 63 % 1020,8 hPa 0,0 l/m 0,0 km/h (0 Bft) SW 225 0,7 C 16,1 C 0,0 km/h (0 Bft)
19.03.2014 04:25 7,3 C 64 % 1021,2 hPa 0,0 l/m 0,0 km/h (0 Bft) SW 225 1,0 C 16,1 C 0,0 km/h (0 Bft)
19.03.2014 04:30 7,3 C 64 % 1021,2 hPa 0,0 l/m 0,0 km/h (0 Bft) SW 225 1,0 C 16,1 C 0,0 km/h (0 Bft)
19.03.2014 04:35 7,3 C 64 % 1021,2 hPa 0,0 l/m 0,0 km/h (0 Bft) SW 225 1,0 C 16,1 C 0,0 km/h (0 Bft)
19.03.2014 04:40 7,3 C 65 % 1021,2 hPa 0,0 l/m 0,0 km/h (0 Bft) SW 225 1,2 C 16,1 C 0,0 km/h (0 Bft)
19.03.2014 04:45 7,3 C 65 % 1021,6 hPa 0,0 l/m 0,0 km/h (0 Bft) SW 225 1,2 C 16,1 C 0,0 km/h (0 Bft)
19.03.2014 04:50 7,2 C 65 % 1021,6 hPa 0,0 l/m 0,0 km/h (0 Bft) SW 225 1,1 C 16,1 C 0,0 km/h (0 Bft)
19.03.2014 04:55 7,1 C 66 % 1021,6 hPa 0,0 l/m 0,0 km/h (0 Bft) SW 225 1,2 C 16,1 C 0,0 km/h (0 Bft)
19.03.2014 05:00 7,1 C 66 % 1021,6 hPa 0,0 l/m 0,0 km/h (0 Bft) SW 225 1,2 C 16,1 C 0,0 km/h (0 Bft)
19.03.2014 05:05 7,1 C 66 % 1021,9 hPa 0,0 l/m 0,0 km/h (0 Bft) SW 225 1,2 C 16,1 C 0,0 km/h (0 Bft)
19.03.2014 05:10 7,0 C 66 % 1021,9 hPa 0,0 l/m 0,0 km/h (0 Bft) SW 225 1,1 C 16,1 C 0,0 km/h (0 Bft)
19.03.2014 05:15 7,1 C 67 % 1021,9 hPa 0,0 l/m 0,0 km/h (0 Bft) SW 225 1,4 C 16,1 C 0,0 km/h (0 Bft)
19.03.2014 05:20 7,0 C 67 % 1021,9 hPa 0,0 l/m 0,0 km/h (0 Bft) SW 225 1,3 C 16,1 C 0,0 km/h (0 Bft)
19.03.2014 05:25 7,0 C 67 % 1022,2 hPa 0,0 l/m 0,0 km/h (0 Bft) SW 225 1,3 C 16,1 C 0,0 km/h (0 Bft)
19.03.2014 05:30 6,9 C 68 % 1022,2 hPa 0,0 l/m 0,0 km/h (0 Bft) SW 225 1,4 C 16,1 C 0,0 km/h (0 Bft)
19.03.2014 05:35 6,9 C 68 % 1022,2 hPa 0,0 l/m 0,0 km/h (0 Bft) SW 225 1,4 C 16,1 C 0,0 km/h (0 Bft)
19.03.2014 05:40 6,9 C 68 % 1022,2 hPa 0,0 l/m 0,0 km/h (0 Bft) SW 225 1,4 C 16,1 C 0,0 km/h (0 Bft)
19.03.2014 05:45 6,8 C 69 % 1022,6 hPa 0,0 l/m 0,0 km/h (0 Bft) SW 225 1,5 C 16,1 C 0,0 km/h (0 Bft)
19.03.2014 05:50 6,8 C 69 % 1022,6 hPa 0,0 l/m 0,0 km/h (0 Bft) SW 225 1,5 C 16,1 C 0,0 km/h (0 Bft)
19.03.2014 05:55 6,8 C 69 % 1022,6 hPa 0,0 l/m 0,0 km/h (0 Bft) SW 225 1,5 C 16,1 C 0,0 km/h (0 Bft)
19.03.2014 06:00 6,8 C 70 % 1022,6 hPa 0,0 l/m 0,0 km/h (0 Bft) SW 225 1,7 C 16,1 C 0,0 km/h (0 Bft)
19.03.2014 06:05 6,8 C 70 % 1022,7 hPa 0,0 l/m 0,0 km/h (0 Bft) SW 225 1,7 C 16,1 C 0,0 km/h (0 Bft)
19.03.2014 06:10 6,8 C 70 % 1022,7 hPa 0,0 l/m 0,0 km/h (0 Bft) SW 225 1,7 C 16,1 C 0,0 km/h (0 Bft)
19.03.2014 06:15 6,8 C 70 % 1022,7 hPa 0,0 l/m 0,0 km/h (0 Bft) SW 225 1,7 C 16,1 C 0,0 km/h (0 Bft)
19.03.2014 06:20 6,7 C 70 % 1022,7 hPa 0,0 l/m 0,0 km/h (0 Bft) SW 225 1,6 C 16,1 C 0,0 km/h (0 Bft)
19.03.2014 06:25 6,7 C 69 % 1023,1 hPa 0,0 l/m 0,0 km/h (0 Bft) SW 225 1,4 C 16,1 C 0,0 km/h (0 Bft)
19.03.2014 06:30 6,6 C 69 % 1023,1 hPa 0,0 l/m 0,0 km/h (0 Bft) SW 225 1,3 C 16,1 C 0,0 km/h (0 Bft)
19.03.2014 06:35 6,5 C 68 % 1023,1 hPa 0,0 l/m 0,0 km/h (0 Bft) SW 225 1,0 C 16,1 C 0,0 km/h (0 Bft)
19.03.2014 06:40 6,5 C 67 % 1023,1 hPa 0,0 l/m 0,0 km/h (0 Bft) SW 225 0,8 C 16,1 C 0,0 km/h (0 Bft)
19.03.2014 06:45 6,4 C 66 % 1023,4 hPa 0,0 l/m 0,0 km/h (0 Bft) SW 225 0,5 C 16,1 C 0,0 km/h (0 Bft)
19.03.2014 06:50 6,4 C 66 % 1023,4 hPa 0,0 l/m 0,0 km/h (0 Bft) SW 225 0,5 C 16,1 C 0,0 km/h (0 Bft)
19.03.2014 06:55 6,4 C 66 % 1023,4 hPa 0,0 l/m 0,0 km/h (0 Bft) SW 225 0,5 C 16,1 C 0,0 km/h (0 Bft)
19.03.2014 07:00 6,4 C 66 % 1023,4 hPa 0,0 l/m 0,0 km/h (0 Bft) SW 225 0,5 C 16,1 C 0,0 km/h (0 Bft)
19.03.2014 07:05 6,4 C 67 % 1023,6 hPa 0,0 l/m 0,0 km/h (0 Bft) SW 225 0,7 C 16,1 C 0,0 km/h (0 Bft)
19.03.2014 07:10 6,3 C 66 % 1023,6 hPa 0,0 l/m 0,0 km/h (0 Bft) SW 225 0,4 C 16,1 C 0,0 km/h (0 Bft)
19.03.2014 07:15 6,4 C 64 % 1023,6 hPa 0,0 l/m 0,0 km/h (0 Bft) SW 225 0,1 C 16,1 C 0,0 km/h (0 Bft)
19.03.2014 07:20 6,4 C 64 % 1023,6 hPa 0,0 l/m 0,0 km/h (0 Bft) SW 225 0,1 C 16,1 C 0,0 km/h (0 Bft)
19.03.2014 07:25 6,5 C 64 % 1023,9 hPa 0,0 l/m 0,0 km/h (0 Bft) SW 225 0,2 C 16,1 C 0,0 km/h (0 Bft)
19.03.2014 07:30 6,5 C 64 % 1023,9 hPa 0,0 l/m 0,0 km/h (0 Bft) SW 225 0,2 C 16,1 C 0,0 km/h (0 Bft)
19.03.2014 07:35 6,6 C 63 % 1023,9 hPa 0,0 l/m 0,0 km/h (0 Bft) SW 225 0,1 C 16,1 C 0,0 km/h (0 Bft)
19.03.2014 07:40 6,6 C 62 % 1023,9 hPa 0,0 l/m 0,0 km/h (0 Bft) SW 225 -0,1 C 16,1 C 0,0 km/h (0 Bft)
19.03.2014 07:45 6,7 C 61 % 1024,1 hPa 0,0 l/m 0,0 km/h (0 Bft) SW 225 -0,3 C 16,1 C 0,0 km/h (0 Bft)
19.03.2014 07:50 6,7 C 61 % 1024,1 hPa 0,0 l/m 0,0 km/h (0 Bft) SW 225 -0,3 C 16,1 C 0,0 km/h (0 Bft)
19.03.2014 07:55 6,8 C 60 % 1024,1 hPa 0,0 l/m 0,0 km/h (0 Bft) SW 225 -0,4 C 16,1 C 0,0 km/h (0 Bft)
19.03.2014 08:00 6,8 C 60 % 1024,1 hPa 0,0 l/m 0,0 km/h (0 Bft) SW 225 -0,4 C 16,1 C 0,0 km/h (0 Bft)
19.03.2014 08:05 6,8 C 60 % 1024,3 hPa 0,0 l/m 0,0 km/h (0 Bft) SW 225 -0,4 C 16,1 C 0,0 km/h (0 Bft)
19.03.2014 08:10 6,9 C 60 % 1024,3 hPa 0,0 l/m 0,0 km/h (0 Bft) SW 225 -0,3 C 16,1 C 0,0 km/h (0 Bft)
19.03.2014 08:15 7,0 C 59 % 1024,3 hPa 0,0 l/m 0,0 km/h (0 Bft) SW 225 -0,5 C 16,1 C 0,0 km/h (0 Bft)
19.03.2014 08:20 7,2 C 59 % 1024,3 hPa 0,0 l/m 0,0 km/h (0 Bft) SW 225 -0,3 C 16,1 C 0,0 km/h (0 Bft)
19.03.2014 08:25 7,6 C 58 % 1025,1 hPa 0,0 l/m 0,0 km/h (0 Bft) SW 225 -0,1 C 16,1 C 0,0 km/h (0 Bft)
19.03.2014 08:30 7,9 C 58 % 1025,1 hPa 0,0 l/m 0,0 km/h (0 Bft) SW 225 0,2 C 16,1 C 0,0 km/h (0 Bft)
19.03.2014 08:35 7,5 C 58 % 1025,1 hPa 0,0 l/m 0,0 km/h (0 Bft) SW 225 -0,2 C 16,1 C 0,0 km/h (0 Bft)
19.03.2014 08:40 7,5 C 58 % 1025,1 hPa 0,0 l/m 0,0 km/h (0 Bft) SW 225 -0,2 C 16,1 C 0,0 km/h (0 Bft)
19.03.2014 08:45 7,7 C 58 % 1025,2 hPa 0,0 l/m 0,0 km/h (0 Bft) SW 225 -0,0 C 16,1 C 0,0 km/h (0 Bft)
19.03.2014 08:50 7,7 C 58 % 1025,2 hPa 0,0 l/m 0,0 km/h (0 Bft) SW 225 -0,0 C 16,1 C 0,0 km/h (0 Bft)
19.03.2014 08:55 8,2 C 57 % 1025,2 hPa 0,0 l/m 0,0 km/h (0 Bft) SW 225 0,2 C 16,1 C 0,0 km/h (0 Bft)
19.03.2014 09:00 9,2 C 56 % 1025,2 hPa 0,0 l/m 0,0 km/h (0 Bft) SW 225 0,9 C 16,1 C 0,0 km/h (0 Bft)
19.03.2014 09:05 10,2 C 53 % 1025,3 hPa 0,0 l/m 0,0 km/h (0 Bft) SW 225 1,1 C 16,1 C 0,0 km/h (0 Bft)
19.03.2014 09:09 10,6 C 52 % 1025,3 hPa 0,0 l/m 0,0 km/h (0 Bft) SW 225 1,2 C 16,1 C 0,0 km/h (0 Bft)
19.03.2014 09:10 10,6 C 52 % 1025,3 hPa 0,0 l/m 0,0 km/h (0 Bft) SW 225 1,2 C 16,1 C 0,0 km/h (0 Bft)
19.03.2014 09:15 9,7 C 52 % 1025,3 hPa 0,0 l/m 0,0 km/h (0 Bft) SW 225 0,3 C 16,1 C 0,0 km/h (0 Bft)
19.03.2014 09:20 10,2 C 53 % 1025,3 hPa 0,0 l/m 0,0 km/h (0 Bft) SW 225 1,1 C 16,1 C 0,0 km/h (0 Bft)
19.03.2014 09:25 9,4 C 53 % 1025,8 hPa 0,0 l/m 0,0 km/h (0 Bft) SW 225 0,3 C 16,1 C 0,0 km/h (0 Bft)
19.03.2014 09:30 9,0 C 54 % 1025,8 hPa 0,0 l/m 0,0 km/h (0 Bft) SW 225 0,2 C 16,1 C 0,0 km/h (0 Bft)
19.03.2014 09:35 8,6 C 55 % 1025,8 hPa 0,0 l/m 0,0 km/h (0 Bft) SW 225 0,1 C 16,1 C 0,0 km/h (0 Bft)
19.03.2014 09:40 8,7 C 55 % 1025,8 hPa 0,0 l/m 0,0 km/h (0 Bft) SW 225 0,2 C 16,1 C 0,0 km/h (0 Bft)
19.03.2014 09:45 8,4 C 55 % 1026,0 hPa 0,0 l/m 0,0 km/h (0 Bft) SW 225 -0,1 C 16,1 C 0,0 km/h (0 Bft)
19.03.2014 09:50 8,4 C 55 % 1026,0 hPa 0,0 l/m 0,0 km/h (0 Bft) SW 225 -0,1 C 16,1 C 0,0 km/h (0 Bft)
19.03.2014 09:55 8,4 C 55 % 1026,0 hPa 0,0 l/m 0,0 km/h (0 Bft) SW 225 -0,1 C 16,1 C 0,0 km/h (0 Bft)
19.03.2014 10:00 8,3 C 55 % 1026,0 hPa 0,0 l/m 0,0 km/h (0 Bft) SW 225 -0,2 C 16,1 C 0,0 km/h (0 Bft)
19.03.2014 10:05 8,4 C 55 % 1026,0 hPa 0,0 l/m 0,0 km/h (0 Bft) SW 225 -0,1 C 16,1 C 0,0 km/h (0 Bft)
19.03.2014 10:10 8,5 C 55 % 1026,0 hPa 0,0 l/m 0,0 km/h (0 Bft) SW 225 -0,0 C 16,1 C 0,0 km/h (0 Bft)
19.03.2014 10:15 8,5 C 55 % 1026,0 hPa 0,0 l/m 0,0 km/h (0 Bft) SW 225 -0,0 C 16,1 C 0,0 km/h (0 Bft)
19.03.2014 10:20 8,6 C 56 % 1026,0 hPa 0,0 l/m 0,0 km/h (0 Bft) SW 225 0,3 C 16,1 C 0,0 km/h (0 Bft)
19.03.2014 10:25 8,5 C 56 % 1026,5 hPa 0,0 l/m 0,0 km/h (0 Bft) SW 225 0,2 C 16,1 C 0,0 km/h (0 Bft)
19.03.2014 10:30 8,5 C 56 % 1026,5 hPa 0,0 l/m 0,0 km/h (0 Bft) SW 225 0,2 C 16,1 C 0,0 km/h (0 Bft)
19.03.2014 10:35 8,7 C 56 % 1026,5 hPa 0,0 l/m 0,0 km/h (0 Bft) SW 225 0,4 C 16,1 C 0,0 km/h (0 Bft)
19.03.2014 10:40 8,9 C 56 % 1026,5 hPa 0,0 l/m 0,0 km/h (0 Bft) SW 225 0,6 C 16,1 C 0,0 km/h (0 Bft)
19.03.2014 10:45 9,0 C 56 % 1026,4 hPa 0,0 l/m 0,0 km/h (0 Bft) SW 225 0,7 C 16,1 C 0,0 km/h (0 Bft)
19.03.2014 10:50 9,3 C 56 % 1026,4 hPa 0,0 l/m 0,0 km/h (0 Bft) SW 225 1,0 C 16,1 C 0,0 km/h (0 Bft)
19.03.2014 10:55 10,0 C 55 % 1026,4 hPa 0,0 l/m 0,0 km/h (0 Bft) SW 225 1,4 C 16,1 C 0,0 km/h (0 Bft)
19.03.2014 11:00 10,5 C 53 % 1026,4 hPa 0,0 l/m 0,0 km/h (0 Bft) SW 225 1,3 C 16,1 C 0,0 km/h (0 Bft)
19.03.2014 11:05 11,0 C 51 % 1026,5 hPa 0,0 l/m 0,0 km/h (0 Bft) SW 225 1,3 C 16,1 C 0,0 km/h (0 Bft)
19.03.2014 11:10 11,4 C 50 % 1026,5 hPa 0,0 l/m 0,0 km/h (0 Bft) SW 225 1,4 C 16,1 C 0,0 km/h (0 Bft)
19.03.2014 11:15 10,8 C 49 % 1026,5 hPa 0,0 l/m 0,0 km/h (0 Bft) SW 225 0,5 C 16,1 C 0,0 km/h (0 Bft)
19.03.2014 11:20 10,2 C 51 % 1026,5 hPa 0,0 l/m 0,0 km/h (0 Bft) SW 225 0,5 C 16,1 C 0,0 km/h (0 Bft)
19.03.2014 11:25 9,8 C 51 % 1026,8 hPa 0,0 l/m 0,0 km/h (0 Bft) SW 225 0,2 C 16,1 C 0,0 km/h (0 Bft)
19.03.2014 11:30 10,0 C 52 % 1026,8 hPa 0,0 l/m 0,0 km/h (0 Bft) SW 225 0,6 C 16,1 C 0,0 km/h (0 Bft)
19.03.2014 11:35 9,9 C 52 % 1026,8 hPa 0,0 l/m 0,0 km/h (0 Bft) SW 225 0,5 C 16,1 C 0,0 km/h (0 Bft)
19.03.2014 11:40 9,8 C 51 % 1026,8 hPa 0,0 l/m 0,0 km/h (0 Bft) SW 225 0,2 C 16,1 C 0,0 km/h (0 Bft)
19.03.2014 11:45 10,2 C 51 % 1026,9 hPa 0,0 l/m 0,0 km/h (0 Bft) SW 225 0,5 C 16,1 C 0,0 km/h (0 Bft)
19.03.2014 11:50 10,2 C 51 % 1026,9 hPa 0,0 l/m 0,0 km/h (0 Bft) SW 225 0,5 C 16,1 C 0,0 km/h (0 Bft)
19.03.2014 11:55 10,6 C 51 % 1026,9 hPa 0,0 l/m 0,0 km/h (0 Bft) SW 225 0,9 C 16,1 C 0,0 km/h (0 Bft)
19.03.2014 12:00 11,2 C 48 % 1026,9 hPa 0,0 l/m 0,0 km/h (0 Bft) SW 225 0,6 C 16,1 C 0,0 km/h (0 Bft)
19.03.2014 12:05 10,7 C 48 % 1026,8 hPa 0,0 l/m 0,0 km/h (0 Bft) SW 225 0,1 C 16,1 C 0,0 km/h (0 Bft)
19.03.2014 12:10 10,7 C 48 % 1026,8 hPa 0,0 l/m 0,0 km/h (0 Bft) SW 225 0,1 C 16,1 C 0,0 km/h (0 Bft)
19.03.2014 12:15 11,7 C 46 % 1026,8 hPa 0,0 l/m 0,0 km/h (0 Bft) SW 225 0,5 C 16,1 C 0,0 km/h (0 Bft)
19.03.2014 12:20 11,4 C 46 % 1026,8 hPa 0,0 l/m 0,0 km/h (0 Bft) SW 225 0,2 C 16,1 C 0,0 km/h (0 Bft)
19.03.2014 12:25 11,7 C 46 % 1026,7 hPa 0,0 l/m 0,0 km/h (0 Bft) SW 225 0,5 C 16,1 C 0,0 km/h (0 Bft)
19.03.2014 12:30 12,9 C 44 % 1026,7 hPa 0,0 l/m 0,0 km/h (0 Bft) SW 225 1,0 C 16,1 C 0,0 km/h (0 Bft)
19.03.2014 12:35 13,7 C 42 % 1026,7 hPa 0,0 l/m 0,0 km/h (0 Bft) SW 225 1,0 C 16,1 C 0,0 km/h (0 Bft)
19.03.2014 12:40 13,3 C 41 % 1026,7 hPa 0,0 l/m 0,0 km/h (0 Bft) SW 225 0,3 C 16,1 C 0,0 km/h (0 Bft)
19.03.2014 12:45 11,4 C 45 % 1026,8 hPa 0,0 l/m 0,0 km/h (0 Bft) SW 225 -0,1 C 16,1 C 0,0 km/h (0 Bft)
19.03.2014 12:50 11,7 C 45 % 1026,8 hPa 0,0 l/m 0,0 km/h (0 Bft) SW 225 0,2 C 16,1 C 0,0 km/h (0 Bft)
19.03.2014 12:55 11,7 C 45 % 1026,8 hPa 0,0 l/m 0,0 km/h (0 Bft) SW 225 0,2 C 16,1 C 0,0 km/h (0 Bft)
19.03.2014 13:00 12,1 C 44 % 1026,8 hPa 0,0 l/m 0,0 km/h (0 Bft) SW 225 0,2 C 16,1 C 0,0 km/h (0 Bft)
19.03.2014 13:05 12,7 C 42 % 1026,9 hPa 0,0 l/m 0,0 km/h (0 Bft) SW 225 0,1 C 16,1 C 0,0 km/h (0 Bft)
19.03.2014 13:10 12,0 C 43 % 1026,9 hPa 0,0 l/m 0,0 km/h (0 Bft) SW 225 -0,2 C 16,1 C 0,0 km/h (0 Bft)
19.03.2014 13:15 11,1 C 44 % 1026,9 hPa 0,0 l/m 0,0 km/h (0 Bft) SW 225 -0,7 C 16,1 C 0,0 km/h (0 Bft)
19.03.2014 13:20 12,4 C 43 % 1026,9 hPa 0,0 l/m 0,0 km/h (0 Bft) SW 225 0,2 C 16,1 C 0,0 km/h (0 Bft)
19.03.2014 13:25 12,6 C 41 % 1027,2 hPa 0,0 l/m 0,0 km/h (0 Bft) SW 225 -0,3 C 16,1 C 0,0 km/h (0 Bft)
19.03.2014 13:30 12,7 C 41 % 1027,2 hPa 0,0 l/m 0,0 km/h (0 Bft) SW 225 -0,2 C 16,1 C 0,0 km/h (0 Bft)
19.03.2014 13:35 13,4 C 39 % 1027,2 hPa 0,0 l/m 0,0 km/h (0 Bft) SW 225 -0,3 C 16,1 C 0,0 km/h (0 Bft)
19.03.2014 13:40 13,4 C 38 % 1027,2 hPa 0,0 l/m 0,0 km/h (0 Bft) SW 225 -0,6 C 16,1 C 0,0 km/h (0 Bft)
19.03.2014 13:45 13,8 C 37 % 1027,4 hPa 0,0 l/m 0,0 km/h (0 Bft) SW 225 -0,6 C 16,1 C 0,0 km/h (0 Bft)
19.03.2014 13:50 13,3 C 37 % 1027,4 hPa 0,0 l/m 0,0 km/h (0 Bft) SW 225 -1,1 C 16,1 C 0,0 km/h (0 Bft)
19.03.2014 13:55 13,1 C 38 % 1027,4 hPa 0,0 l/m 0,0 km/h (0 Bft) SW 225 -0,9 C 16,1 C 0,0 km/h (0 Bft)
19.03.2014 14:00 13,4 C 38 % 1027,4 hPa 0,0 l/m 0,0 km/h (0 Bft) SW 225 -0,6 C 16,1 C 0,0 km/h (0 Bft)
19.03.2014 14:05 13,0 C 38 % 1027,2 hPa 0,0 l/m 0,0 km/h (0 Bft) SW 225 -1,0 C 16,1 C 0,0 km/h (0 Bft)
19.03.2014 14:08 13,7 C 38 % 1027,2 hPa 0,0 l/m 0,0 km/h (0 Bft) SW 225 -0,4 C 16,1 C 0,0 km/h (0 Bft)
19.03.2014 14:10 13,7 C 38 % 1027,2 hPa 0,0 l/m 0,0 km/h (0 Bft) SW 225 -0,4 C 16,1 C 0,0 km/h (0 Bft)
19.03.2014 14:15 13,3 C 38 % 1027,2 hPa 0,0 l/m 0,0 km/h (0 Bft) SW 225 -0,7 C 16,1 C 0,0 km/h (0 Bft)
19.03.2014 14:20 13,3 C 38 % 1027,2 hPa 0,0 l/m 0,0 km/h (0 Bft) SW 225 -0,7 C 16,1 C 0,0 km/h (0 Bft)
19.03.2014 14:25 13,2 C 37 % 1027,1 hPa 0,0 l/m 0,0 km/h (0 Bft) SW 225 -1,2 C 16,1 C 0,0 km/h (0 Bft)
19.03.2014 14:30 12,9 C 38 % 1027,1 hPa 0,0 l/m 0,0 km/h (0 Bft) SW 225 -1,1 C 16,1 C 0,0 km/h (0 Bft)
19.03.2014 14:35 13,0 C 37 % 1027,1 hPa 0,0 l/m 0,0 km/h (0 Bft) SW 225 -1,3 C 16,1 C 0,0 km/h (0 Bft)
19.03.2014 14:40 12,8 C 39 % 1027,1 hPa 0,0 l/m 0,0 km/h (0 Bft) SW 225 -0,8 C 16,1 C 0,0 km/h (0 Bft)
19.03.2014 14:45 12,9 C 39 % 1027,1 hPa 0,0 l/m 0,0 km/h (0 Bft) SW 225 -0,7 C 16,1 C 0,0 km/h (0 Bft)
19.03.2014 14:50 12,9 C 40 % 1027,1 hPa 0,0 l/m 0,0 km/h (0 Bft) SW 225 -0,4 C 16,1 C 0,0 km/h (0 Bft)
19.03.2014 14:55 12,8 C 41 % 1027,1 hPa 0,0 l/m 0,0 km/h (0 Bft) SW 225 -0,1 C 16,1 C 0,0 km/h (0 Bft)
19.03.2014 15:00 13,0 C 39 % 1027,1 hPa 0,0 l/m 0,0 km/h (0 Bft) SW 225 -0,6 C 16,1 C 0,0 km/h (0 Bft)
19.03.2014 15:05 13,1 C 38 % 1027,0 hPa 0,0 l/m 0,0 km/h (0 Bft) SW 225 -0,9 C 16,1 C 0,0 km/h (0 Bft)
19.03.2014 15:10 13,2 C 38 % 1027,0 hPa 0,0 l/m 0,0 km/h (0 Bft) SW 225 -0,8 C 16,1 C 0,0 km/h (0 Bft)
19.03.2014 15:15 13,1 C 39 % 1027,0 hPa 0,0 l/m 0,0 km/h (0 Bft) SW 225 -0,5 C 16,1 C 0,0 km/h (0 Bft)
19.03.2014 15:20 12,8 C 39 % 1027,0 hPa 0,0 l/m 0,0 km/h (0 Bft) SW 225 -0,8 C 16,1 C 0,0 km/h (0 Bft)
19.03.2014 15:25 12,7 C 39 % 1027,0 hPa 0,0 l/m 0,0 km/h (0 Bft) SW 225 -0,9 C 16,1 C 0,0 km/h (0 Bft)
19.03.2014 15:30 12,7 C 39 % 1027,0 hPa 0,0 l/m 0,0 km/h (0 Bft) SW 225 -0,9 C 16,1 C 0,0 km/h (0 Bft)
19.03.2014 15:35 12,4 C 40 % 1027,0 hPa 0,0 l/m 0,0 km/h (0 Bft) SW 225 -0,8 C 16,1 C 0,0 km/h (0 Bft)
19.03.2014 15:40 12,4 C 41 % 1027,0 hPa 0,0 l/m 0,0 km/h (0 Bft) SW 225 -0,5 C 16,1 C 0,0 km/h (0 Bft)
19.03.2014 15:45 12,5 C 41 % 1026,6 hPa 0,0 l/m 0,0 km/h (0 Bft) SW 225 -0,4 C 16,1 C 0,0 km/h (0 Bft)
19.03.2014 15:50 12,4 C 41 % 1026,6 hPa 0,0 l/m 0,0 km/h (0 Bft) SW 225 -0,5 C 16,1 C 0,0 km/h (0 Bft)
19.03.2014 15:55 12,2 C 42 % 1026,6 hPa 0,0 l/m 0,0 km/h (0 Bft) SW 225 -0,3 C 16,1 C 0,0 km/h (0 Bft)
19.03.2014 16:00 12,1 C 42 % 1026,6 hPa 0,0 l/m 0,0 km/h (0 Bft) SW 225 -0,4 C 16,1 C 0,0 km/h (0 Bft)
19.03.2014 16:05 11,9 C 43 % 1027,0 hPa 0,0 l/m 0,0 km/h (0 Bft) SW 225 -0,3 C 16,1 C 0,0 km/h (0 Bft)
19.03.2014 16:10 11,4 C 43 % 1027,0 hPa 0,0 l/m 0,0 km/h (0 Bft) SW 225 -0,7 C 16,1 C 0,0 km/h (0 Bft)
19.03.2014 16:15 11,4 C 44 % 1027,0 hPa 0,0 l/m 0,0 km/h (0 Bft) SW 225 -0,4 C 16,1 C 0,0 km/h (0 Bft)
19.03.2014 16:20 11,3 C 44 % 1027,0 hPa 0,0 l/m 0,0 km/h (0 Bft) SW 225 -0,5 C 16,1 C 0,0 km/h (0 Bft)
19.03.2014 16:25 10,9 C 46 % 1026,6 hPa 0,0 l/m 0,0 km/h (0 Bft) SW 225 -0,3 C 16,1 C 0,0 km/h (0 Bft)
19.03.2014 16:30 11,0 C 46 % 1026,6 hPa 0,0 l/m 0,0 km/h (0 Bft) SW 225 -0,2 C 16,1 C 0,0 km/h (0 Bft)
19.03.2014 16:35 10,8 C 47 % 1026,6 hPa 0,0 l/m 0,0 km/h (0 Bft) SW 225 -0,1 C 16,1 C 0,0 km/h (0 Bft)
19.03.2014 16:40 10,6 C 48 % 1026,6 hPa 0,0 l/m 0,0 km/h (0 Bft) SW 225 0,1 C 16,1 C 0,0 km/h (0 Bft)
19.03.2014 16:45 10,2 C 49 % 1026,4 hPa 0,0 l/m 0,0 km/h (0 Bft) SW 225 -0,0 C 16,1 C 0,0 km/h (0 Bft)
19.03.2014 16:50 10,3 C 49 % 1026,4 hPa 0,0 l/m 0,0 km/h (0 Bft) SW 225 0,1 C 16,1 C 0,0 km/h (0 Bft)
19.03.2014 16:55 10,3 C 49 % 1026,4 hPa 0,0 l/m 0,0 km/h (0 Bft) SW 225 0,1 C 16,1 C 0,0 km/h (0 Bft)
19.03.2014 17:00 10,1 C 50 % 1026,4 hPa 0,0 l/m 0,0 km/h (0 Bft) SW 225 0,2 C 16,1 C 0,0 km/h (0 Bft)
19.03.2014 17:05 9,9 C 51 % 1026,1 hPa 0,0 l/m 0,0 km/h (0 Bft) SW 225 0,2 C 16,1 C 0,0 km/h (0 Bft)
19.03.2014 17:10 9,7 C 51 % 1026,1 hPa 0,0 l/m 0,0 km/h (0 Bft) SW 225 0,1 C 16,1 C 0,0 km/h (0 Bft)
19.03.2014 17:15 9,6 C 52 % 1026,1 hPa 0,0 l/m 0,0 km/h (0 Bft) SW 225 0,2 C 16,1 C 0,0 km/h (0 Bft)
19.03.2014 17:20 9,4 C 52 % 1026,1 hPa 0,0 l/m 0,0 km/h (0 Bft) SW 225 0,1 C 16,1 C 0,0 km/h (0 Bft)
19.03.2014 17:25 9,2 C 53 % 1026,1 hPa 0,0 l/m 0,0 km/h (0 Bft) SW 225 0,1 C 16,1 C 0,0 km/h (0 Bft)
19.03.2014 17:30 9,0 C 53 % 1026,1 hPa 0,0 l/m 0,0 km/h (0 Bft) SW 225 -0,1 C 16,1 C 0,0 km/h (0 Bft)
19.03.2014 17:35 8,8 C 55 % 1026,1 hPa 0,0 l/m 0,0 km/h (0 Bft) SW 225 0,3 C 16,1 C 0,0 km/h (0 Bft)
19.03.2014 17:40 8,6 C 55 % 1026,1 hPa 0,0 l/m 0,0 km/h (0 Bft) SW 225 0,1 C 16,1 C 0,0 km/h (0 Bft)
19.03.2014 17:45 8,5 C 55 % 1026,0 hPa 0,0 l/m 0,0 km/h (0 Bft) SW 225 -0,0 C 16,1 C 0,0 km/h (0 Bft)
19.03.2014 17:50 8,4 C 56 % 1026,0 hPa 0,0 l/m 0,0 km/h (0 Bft) SW 225 0,1 C 16,1 C 0,0 km/h (0 Bft)
19.03.2014 17:55 7,9 C 56 % 1026,0 hPa 0,0 l/m 0,0 km/h (0 Bft) SW 225 -0,3 C 16,1 C 0,0 km/h (0 Bft)
19.03.2014 18:00 7,8 C 56 % 1026,0 hPa 0,0 l/m 0,0 km/h (0 Bft) SW 225 -0,4 C 16,1 C 0,0 km/h (0 Bft)
19.03.2014 18:05 7,4 C 56 % 1026,1 hPa 0,0 l/m 0,0 km/h (0 Bft) SW 225 -0,8 C 16,1 C 0,0 km/h (0 Bft)
19.03.2014 18:10 7,2 C 57 % 1026,1 hPa 0,0 l/m 0,0 km/h (0 Bft) SW 225 -0,7 C 16,1 C 0,0 km/h (0 Bft)
19.03.2014 18:15 7,1 C 57 % 1026,1 hPa 0,0 l/m 0,0 km/h (0 Bft) SW 225 -0,8 C 16,1 C 0,0 km/h (0 Bft)
19.03.2014 18:20 7,1 C 58 % 1026,1 hPa 0,0 l/m 0,0 km/h (0 Bft) SW 225 -0,6 C 16,1 C 0,0 km/h (0 Bft)
19.03.2014 18:25 6,8 C 58 % 1026,6 hPa 0,0 l/m 0,0 km/h (0 Bft) SW 225 -0,9 C 16,1 C 0,0 km/h (0 Bft)
19.03.2014 18:30 6,8 C 58 % 1026,6 hPa 0,0 l/m 0,0 km/h (0 Bft) SW 225 -0,9 C 16,1 C 0,0 km/h (0 Bft)
19.03.2014 18:35 6,9 C 59 % 1026,6 hPa 0,0 l/m 0,0 km/h (0 Bft) SW 225 -0,5 C 16,1 C 0,0 km/h (0 Bft)
19.03.2014 18:40 6,9 C 59 % 1026,6 hPa 0,0 l/m 0,0 km/h (0 Bft) SW 225 -0,5 C 16,1 C 0,0 km/h (0 Bft)
19.03.2014 18:45 6,4 C 60 % 1026,7 hPa 0,0 l/m 0,0 km/h (0 Bft) SW 225 -0,8 C 16,1 C 0,0 km/h (0 Bft)
19.03.2014 18:50 6,1 C 61 % 1026,7 hPa 0,0 l/m 0,0 km/h (0 Bft) SW 225 -0,8 C 16,1 C 0,0 km/h (0 Bft)
19.03.2014 18:55 5,9 C 64 % 1026,7 hPa 0,0 l/m 0,0 km/h (0 Bft) SW 225 -0,4 C 16,1 C 0,0 km/h (0 Bft)
19.03.2014 19:00 5,7 C 65 % 1026,7 hPa 0,0 l/m 0,0 km/h (0 Bft) SW 225 -0,4 C 16,1 C 0,0 km/h (0 Bft)
19.03.2014 19:05 5,5 C 65 % 1026,6 hPa 0,0 l/m 0,0 km/h (0 Bft) SW 225 -0,5 C 16,1 C 0,0 km/h (0 Bft)
19.03.2014 19:08 5,3 C 66 % 1026,6 hPa 0,0 l/m 0,0 km/h (0 Bft) SW 225 -0,5 C 16,1 C 0,0 km/h (0 Bft)
19.03.2014 19:10 5,3 C 66 % 1026,6 hPa 0,0 l/m 0,0 km/h (0 Bft) SW 225 -0,5 C 16,1 C 0,0 km/h (0 Bft)
19.03.2014 19:15 5,1 C 66 % 1026,6 hPa 0,0 l/m 0,0 km/h (0 Bft) SW 225 -0,7 C 16,1 C 0,0 km/h (0 Bft)
19.03.2014 19:20 4,9 C 66 % 1026,6 hPa 0,0 l/m 0,0 km/h (0 Bft) SW 225 -0,9 C 16,1 C 0,0 km/h (0 Bft)
19.03.2014 19:25 5,0 C 67 % 1026,4 hPa 0,0 l/m 0,0 km/h (0 Bft) SW 225 -0,6 C 16,1 C 0,0 km/h (0 Bft)
19.03.2014 19:30 4,8 C 67 % 1026,4 hPa 0,0 l/m 0,0 km/h (0 Bft) SW 225 -0,8 C 16,1 C 0,0 km/h (0 Bft)
19.03.2014 19:35 4,8 C 68 % 1026,4 hPa 0,0 l/m 0,0 km/h (0 Bft) SW 225 -0,6 C 16,1 C 0,0 km/h (0 Bft)
19.03.2014 19:40 4,9 C 68 % 1026,4 hPa 0,0 l/m 0,0 km/h (0 Bft) SW 225 -0,5 C 16,1 C 0,0 km/h (0 Bft)
19.03.2014 19:45 4,6 C 68 % 1026,7 hPa 0,0 l/m 0,0 km/h (0 Bft) SW 225 -0,8 C 16,1 C 0,0 km/h (0 Bft)
19.03.2014 19:50 4,2 C 68 % 1026,7 hPa 0,0 l/m 0,0 km/h (0 Bft) SW 225 -1,2 C 16,1 C 0,0 km/h (0 Bft)
19.03.2014 19:55 3,9 C 70 % 1026,7 hPa 0,0 l/m 0,0 km/h (0 Bft) SW 225 -1,1 C 16,1 C 0,0 km/h (0 Bft)
19.03.2014 20:00 3,9 C 70 % 1026,7 hPa 0,0 l/m 0,0 km/h (0 Bft) SW 225 -1,1 C 16,1 C 0,0 km/h (0 Bft)
19.03.2014 20:05 4,1 C 71 % 1026,6 hPa 0,0 l/m 0,0 km/h (0 Bft) SW 225 -0,7 C 16,1 C 0,0 km/h (0 Bft)
19.03.2014 20:10 4,4 C 71 % 1026,6 hPa 0,0 l/m 0,0 km/h (0 Bft) SW 225 -0,4 C 16,1 C 0,0 km/h (0 Bft)
19.03.2014 20:15 4,2 C 71 % 1026,6 hPa 0,0 l/m 0,0 km/h (0 Bft) SW 225 -0,6 C 16,1 C 0,0 km/h (0 Bft)
19.03.2014 20:20 4,1 C 70 % 1026,6 hPa 0,0 l/m 0,0 km/h (0 Bft) SW 225 -0,9 C 16,1 C 0,0 km/h (0 Bft)
19.03.2014 20:25 4,2 C 71 % 1026,8 hPa 0,0 l/m 0,0 km/h (0 Bft) SW 225 -0,6 C 16,1 C 0,0 km/h (0 Bft)
19.03.2014 20:30 4,2 C 72 % 1026,8 hPa 0,0 l/m 0,0 km/h (0 Bft) SW 225 -0,4 C 16,1 C 0,0 km/h (0 Bft)
19.03.2014 20:35 4,4 C 73 % 1026,8 hPa 0,0 l/m 0,0 km/h (0 Bft) SW 225 -0,0 C 16,1 C 0,0 km/h (0 Bft)
19.03.2014 20:40 4,3 C 72 % 1026,8 hPa 0,0 l/m 0,0 km/h (0 Bft) SW 225 -0,3 C 16,1 C 0,0 km/h (0 Bft)
19.03.2014 20:45 4,1 C 72 % 1026,8 hPa 0,0 l/m 0,0 km/h (0 Bft) SW 225 -0,5 C 16,1 C 0,0 km/h (0 Bft)
19.03.2014 20:50 4,0 C 73 % 1026,8 hPa 0,0 l/m 0,0 km/h (0 Bft) SW 225 -0,4 C 16,1 C 0,0 km/h (0 Bft)
19.03.2014 20:55 4,3 C 73 % 1026,8 hPa 0,0 l/m 0,0 km/h (0 Bft) SW 225 -0,1 C 16,1 C 0,0 km/h (0 Bft)
19.03.2014 21:00 4,4 C 73 % 1026,8 hPa 0,0 l/m 0,0 km/h (0 Bft) SW 225 -0,0 C 16,1 C 0,0 km/h (0 Bft)
19.03.2014 21:05 3,9 C 74 % 1026,8 hPa 0,0 l/m 0,0 km/h (0 Bft) SW 225 -0,3 C 16,1 C 0,0 km/h (0 Bft)
19.03.2014 21:10 3,7 C 74 % 1026,8 hPa 0,0 l/m 0,0 km/h (0 Bft) SW 225 -0,5 C 16,1 C 0,0 km/h (0 Bft)
19.03.2014 21:15 3,8 C 75 % 1026,8 hPa 0,0 l/m 0,0 km/h (0 Bft) SW 225 -0,2 C 16,1 C 0,0 km/h (0 Bft)
19.03.2014 21:20 3,7 C 75 % 1026,8 hPa 0,0 l/m 0,0 km/h (0 Bft) SW 225 -0,3 C 16,1 C 0,0 km/h (0 Bft)
19.03.2014 21:25 3,8 C 76 % 1026,4 hPa 0,0 l/m 0,0 km/h (0 Bft) SW 225 -0,0 C 16,1 C 0,0 km/h (0 Bft)
19.03.2014 21:30 3,9 C 76 % 1026,4 hPa 0,0 l/m 0,0 km/h (0 Bft) SW 225 0,1 C 16,1 C 0,0 km/h (0 Bft)
19.03.2014 21:35 3,4 C 75 % 1026,4 hPa 0,0 l/m 0,0 km/h (0 Bft) SW 225 -0,6 C 16,1 C 0,0 km/h (0 Bft)
19.03.2014 21:40 2,9 C 76 % 1026,4 hPa 0,0 l/m 0,0 km/h (0 Bft) SW 225 -0,9 C 16,1 C 0,0 km/h (0 Bft)
19.03.2014 21:45 2,7 C 76 % 1026,8 hPa 0,0 l/m 0,0 km/h (0 Bft) SW 225 -1,1 C 16,1 C 0,0 km/h (0 Bft)
19.03.2014 21:50 2,5 C 76 % 1026,8 hPa 0,0 l/m 0,0 km/h (0 Bft) SW 225 -1,3 C 16,1 C 0,0 km/h (0 Bft)
19.03.2014 21:55 2,7 C 78 % 1026,8 hPa 0,0 l/m 0,0 km/h (0 Bft) SW 225 -0,7 C 16,1 C 0,0 km/h (0 Bft)
19.03.2014 22:00 3,2 C 79 % 1026,8 hPa 0,0 l/m 0,0 km/h (0 Bft) SW 225 -0,1 C 16,1 C 0,0 km/h (0 Bft)
19.03.2014 22:05 3,3 C 78 % 1026,6 hPa 0,0 l/m 0,0 km/h (0 Bft) SW 225 -0,2 C 16,1 C 0,0 km/h (0 Bft)
19.03.2014 22:10 3,5 C 79 % 1026,6 hPa 0,0 l/m 0,0 km/h (0 Bft) SW 225 0,2 C 16,1 C 0,0 km/h (0 Bft)
19.03.2014 22:15 3,6 C 78 % 1026,6 hPa 0,0 l/m 0,0 km/h (0 Bft) SW 225 0,1 C 16,1 C 0,0 km/h (0 Bft)
19.03.2014 22:20 3,3 C 78 % 1026,6 hPa 0,0 l/m 0,0 km/h (0 Bft) SW 225 -0,2 C 16,1 C 0,0 km/h (0 Bft)
19.03.2014 22:25 2,7 C 78 % 1026,7 hPa 0,0 l/m 0,0 km/h (0 Bft) SW 225 -0,7 C 16,1 C 0,0 km/h (0 Bft)
19.03.2014 22:30 2,7 C 78 % 1026,7 hPa 0,0 l/m 0,0 km/h (0 Bft) SW 225 -0,7 C 16,1 C 0,0 km/h (0 Bft)
19.03.2014 22:35 2,8 C 78 % 1026,7 hPa 0,0 l/m 0,0 km/h (0 Bft) SW 225 -0,6 C 16,1 C 0,0 km/h (0 Bft)
19.03.2014 22:40 2,3 C 78 % 1026,7 hPa 0,0 l/m 0,0 km/h (0 Bft) SW 225 -1,1 C 16,1 C 0,0 km/h (0 Bft)
19.03.2014 22:45 1,9 C 79 % 1026,6 hPa 0,0 l/m 0,0 km/h (0 Bft) SW 225 -1,3 C 16,1 C 0,0 km/h (0 Bft)
19.03.2014 22:50 1,6 C 78 % 1026,6 hPa 0,0 l/m 0,0 km/h (0 Bft) SW 225 -1,8 C 16,1 C 0,0 km/h (0 Bft)
19.03.2014 22:55 1,5 C 78 % 1026,6 hPa 0,0 l/m 0,0 km/h (0 Bft) SW 225 -1,9 C 16,1 C 0,0 km/h (0 Bft)
19.03.2014 23:00 1,3 C 79 % 1026,6 hPa 0,0 l/m 0,0 km/h (0 Bft) SW 225 -1,9 C 16,1 C 0,0 km/h (0 Bft)
19.03.2014 23:05 0,9 C 79 % 1026,6 hPa 0,0 l/m 0,0 km/h (0 Bft) SW 225 -2,3 C 16,1 C 0,0 km/h (0 Bft)
19.03.2014 23:10 1,0 C 79 % 1026,6 hPa 0,0 l/m 0,0 km/h (0 Bft) SW 225 -2,2 C 16,1 C 0,0 km/h (0 Bft)
19.03.2014 23:15 0,7 C 79 % 1026,6 hPa 0,0 l/m 0,0 km/h (0 Bft) SW 225 -2,5 C 16,1 C 0,0 km/h (0 Bft)
19.03.2014 23:20 0,6 C 79 % 1026,6 hPa 0,0 l/m 0,0 km/h (0 Bft) SW 225 -2,6 C 16,1 C 0,0 km/h (0 Bft)
19.03.2014 23:25 0,3 C 79 % 1026,4 hPa 0,0 l/m 0,0 km/h (0 Bft) SW 225 -2,9 C 16,1 C 0,0 km/h (0 Bft)
19.03.2014 23:30 0,4 C 80 % 1026,4 hPa 0,0 l/m 0,0 km/h (0 Bft) SW 225 -2,6 C 16,1 C 0,0 km/h (0 Bft)
19.03.2014 23:35 0,3 C 81 % 1026,4 hPa 0,0 l/m 0,0 km/h (0 Bft) SW 225 -2,6 C 16,1 C 0,0 km/h (0 Bft)
19.03.2014 23:40 0,5 C 82 % 1026,4 hPa 0,0 l/m 0,0 km/h (0 Bft) SW 225 -2,2 C 16,1 C 0,0 km/h (0 Bft)
19.03.2014 23:45 0,6 C 82 % 1026,4 hPa 0,0 l/m 0,0 km/h (0 Bft) SW 225 -2,1 C 16,1 C 0,0 km/h (0 Bft)
19.03.2014 23:50 0,4 C 82 % 1026,4 hPa 0,0 l/m 0,0 km/h (0 Bft) SW 225 -2,3 C 16,1 C 0,0 km/h (0 Bft)
19.03.2014 23:55 0,2 C 82 % 1026,4 hPa 0,0 l/m 0,0 km/h (0 Bft) SW 225 -2,5 C 16,1 C 0,0 km/h (0 Bft)
_ Min-Zeit 23:55 14:35 00:00 - 23:55 - - 23:25 23:55 23:55
Minimum _ 0,2 C 37 % 1017,8 hPa - 0,0 km/h (0 Bft) - - -2,9 C 16,1 C 0,0 km/h (0 Bft)
_ Max-Zeit 13:45 23:55 14:00 23:55 23:55 - - 01:50 23:55 23:55
Maximum _ 13,8 C 82 % 1027,4 hPa 0,0 l/m 0,0 km/h
SW (0 Bft)
- - 4,1 C 16,1 C 0,0 km/h
SW (0 Bft)
Durchschnitt _ 8,1 C 59 % 1024,6 hPa #0,0 l/m 0,0 km/h (0 Bft) - - - 0,3 C 16,1 C 0,0 km/h (0 Bft)